Weather History for EGOP - October, 2012

Change the Weather History Date:

Thursday, October 4, 2012

  Actual Average (EGFF) Record (EGFF)
Temperature  
Mean Temperature 47 °F -  
Max Temperature 57 °F 58 °F 64 °F (2001)
Min Temperature 37 °F 48 °F 41 °F (2008)
Degree Days  
Heating Degree Days 18    
Moisture  
Dew Point 47 °F    
Average Humidity 83    
Maximum Humidity 100    
Minimum Humidity 63    
Precipitation  
Precipitation 0.01 in - - ()
Sea Level Pressure  
Sea Level Pressure 29.72 in    
Wind  
Wind Speed 11 mph ()    
Max Wind Speed 32 mph    
Max Gust Speed -    
Visibility 7.5 miles    
Events      
Averages and records for this station are not official NWS values.
T = Trace of Precipitation, MM = Missing Value Source: Averaged Metar Reports

Daily Weather History Graph

Daily Weather History Graph

Search for Another Location

Airport or City:

Trip Planner

Search our weather history database for the weather conditions in past years. The results will help you decide how hot, cold, wet, or windy it might be!

Date:

Astronomy

Oct. 04, 2012 Rise Set
Actual Time 7:23 AM BST 6:47 PM BST
Civil Twilight 6:50 AM BST 7:20 PM BST
Nautical Twilight 6:11 AM BST 7:59 PM BST
Astronomical Twilight 5:31 AM BST 8:39 PM BST
Moon 8:39 PM BST (10/4) 12:00 PM BST (10/4)
Length of Visible Light 12h 30m
Length of Day
11h 23m
Waning Gibbous, 83% of the Moon is Illuminated
Oct 4
Waning Gibbous
Oct 8
Last Quarter
Oct 15
New
Oct 22
First Quarter
Oct 29
Full

Hourly Weather History & Observations

Time (BST) Temp. Windchill Dew Point Humidity Pressure Visibility Wind Dir Wind Speed Gust Speed Precip Events Conditions
12:50 AM 53 °F - 46 °F 69% 29.67 in 17 mi West 11.5 mph - -  
12:50 AM 53.6 °F - 46.4 °F 77% 29.65 in 6.2 mi West 11.5 mph - N/A   Unknown
1:50 AM 42.8 °F 39.3 °F 39.2 °F 87% 29.65 in 6.2 mi NW 5.8 mph - N/A   Unknown
2:50 AM 41.0 °F 39.0 °F 39.2 °F 93% 29.65 in 6.2 mi North 3.5 mph - N/A   Partly Cloudy
3:50 AM 44.6 °F - 44.6 °F 100% 29.65 in 6.2 mi WNW 2.3 mph - N/A   Mostly Cloudy
4:50 AM 39.2 °F - 37.4 °F 93% 29.65 in 6.2 mi NNW 2.3 mph - N/A   Unknown
5:50 AM 39.2 °F - 37.4 °F 93% 29.68 in 6.2 mi NNW 2.3 mph - N/A   Partly Cloudy
6:50 AM 40 °F - 40 °F 98% 29.71 in 12 mi WNW 6.9 mph - -  
6:50 AM 41.0 °F 36.4 °F 39.2 °F 93% 29.68 in 6.2 mi WNW 6.9 mph - N/A   Unknown
7:50 AM 46.4 °F 42.9 °F 44.6 °F 93% 29.71 in 6.2 mi NW 6.9 mph - N/A   Unknown
8:50 AM 48.2 °F - 46.4 °F 93% 29.74 in 6.2 mi NNW 1.2 mph - N/A   Unknown
9:50 AM 52 °F - 48 °F 83% 29.77 in 8 mi West 5.8 mph - -  
9:50 AM 51.8 °F - 48.2 °F 88% 29.77 in - West 5.8 mph - N/A   Clear
10:50 AM 53.6 °F - 48.2 °F 82% 29.80 in 6.2 mi West 9.2 mph - N/A   Partly Cloudy
11:50 AM 55.4 °F - 48.2 °F 77% 29.80 in 6.2 mi West 6.9 mph - N/A   Scattered Clouds
12:50 PM 58 °F - 49 °F 63% 29.82 in 18 mi WSW 16.1 mph - -   Scattered Clouds
12:50 PM 57.2 °F - 48.2 °F 72% 29.80 in 6.2 mi WSW 16.1 mph - N/A   Scattered Clouds
1:50 PM 57.2 °F - 48.2 °F 72% 29.80 in 6.2 mi WSW 17.3 mph - N/A   Scattered Clouds
2:50 PM 57.2 °F - 48.2 °F 72% 29.77 in 6.2 mi SW 11.5 mph - N/A   Scattered Clouds
3:50 PM 56 °F - 49 °F 69% 29.79 in 17 mi SW 18.4 mph - -   Scattered Clouds
3:50 PM 57.2 °F - 48.2 °F 72% 29.77 in 6.2 mi SW 18.4 mph - N/A   Mostly Cloudy
4:50 PM 55.4 °F - 50.0 °F 82% 29.77 in 6.2 mi SW 21.9 mph - N/A   Scattered Clouds
5:50 PM 55.4 °F - 50.0 °F 82% 29.77 in 6.2 mi WSW 18.4 mph - N/A   Scattered Clouds
6:50 PM 56 °F - 47 °F 64% 29.76 in 12 mi SSW 26.5 mph - -   Mostly Cloudy
6:50 PM 55.4 °F - 48.2 °F 77% 29.74 in 6.2 mi SSW 26.5 mph - N/A   Mostly Cloudy
7:50 PM 57.2 °F - 48.2 °F 72% 29.74 in 6.2 mi SSW 28.8 mph - N/A   Mostly Cloudy
8:50 PM 55.4 °F - 48.2 °F 77% 29.71 in 6.2 mi SSW 28.8 mph - N/A   Mostly Cloudy
9:50 PM 54 °F - 52 °F 90% 29.70 in 3 mi South 32.2 mph - -   Mostly Cloudy
9:50 PM 53.6 °F - 51.8 °F 94% 29.68 in 3.1 mi South 32.2 mph - N/A   Mostly Cloudy
10:50 PM 53.6 °F - 53.6 °F 100% 29.65 in - South 27.6 mph - N/A   Mostly Cloudy
11:50 PM 53.6 °F - 51.8 °F 94% 29.62 in 4.3 mi South 19.6 mph - N/A   Mostly Cloudy